EW9965 Weather Reports


time (UTC)temp
F
wind
direction
speed
knots
gust
knots
rain 1hr
in
rain 24hr
in
rain mn
in
humidity
%
barometer
mb
20260510213046 81 199 4.3 8.7 0.00 0.00 0.00 49 1012.8
20260510211544 83 197 4.3 9.6 0.00 0.00 0.00 48 1012.8
20260510210046 83 184 3.5 10.4 0.00 0.00 0.00 47 1013.0
20260510204543 82 163 1.7 7.8 0.00 0.00 0.00 48 1013.0
20260510203044 82 92 5.2 9.6 0.00 0.00 0.00 48 1013.0
20260510201543 82 157 5.2 10.4 0.00 0.00 0.00 49 1013.1
20260510200041 83 153 3.5 9.6 0.00 0.00 0.00 46 1013.1
20260510194553 83 176 4.3 7.8 0.00 0.00 0.00 45 1012.9
20260510193034 83 157 4.3 8.7 0.00 0.00 0.00 44 1012.7
20260510191533 83 256 1.7 8.7 0.00 0.00 0.00 42 1012.8
20260510190030 80 123 2.6 7.8 0.00 0.00 0.00 45 1012.7
20260510184527 80 175 1.7 6.1 0.00 0.00 0.00 45 1012.8
20260510183025 78 288 1.7 7.0 0.00 0.00 0.00 48 1012.8
20260510181522 77 190 0.0 5.2 0.00 0.00 0.00 50 1012.9
20260510180019 76 307 2.6 5.2 0.00 0.00 0.00 51 1013.0
20260510174516 75 203 2.6 7.0 0.00 0.00 0.00 55 1013.5
20260510173016 72 139 2.6 5.2 0.00 0.00 0.00 58 1013.2
20260510171507 72 240 2.6 8.7 0.00 0.00 0.00 61 1013.3
20260510170004 71 251 0.9 5.2 0.00 0.00 0.00 63 1013.2
20260510164603 69 208 2.6 7.0 0.00 0.00 0.00 67 1013.2
20260510163116 68 251 3.5 5.2 0.00 0.00 0.00 69 1012.9
20260510161600 67 263 0.9 5.2 0.00 0.00 0.00 72 1012.8
20260510160056 64 257 0.9 2.6 0.00 0.00 0.00 76 1012.8
20260510154546 63 30 1.7 4.3 0.00 0.00 0.00 77 1012.8
20260510153045 62 240 1.7 2.6 0.00 0.00 0.00 80 1012.8
20260510151537 61 199 1.7 4.3 0.00 0.00 0.00 82 1012.9
20260510150038 61 121 0.9 3.5 0.00 0.00 0.00 84 1012.8
20260510144540 59 360 1.7 5.2 0.00 0.00 0.00 88 1012.8
20260510143043 58 7 0.9 3.5 0.00 0.00 0.00 88 1012.8
20260510141534 57 10 1.7 4.3 0.00 0.00 0.00 88 1012.6
20260510140027 57 16 0.9 4.3 0.00 0.00 0.00 88 1012.7
20260510134517 57 277 0.9 2.6 0.00 0.00 0.00 88 1012.6
20260510133022 57 7 0.9 4.3 0.00 0.00 0.00 88 1012.5
20260510131511 58 109 0.0 0.9 0.00 0.00 0.00 88 1012.3
20260510130010 57 107 0.0 1.7 0.00 0.00 0.00 88 1012.2
20260510124509 57 34 0.9 4.3 0.00 0.00 0.00 88 1012.1
20260510123008 58 97 0.0 1.7 0.00 0.00 0.00 88 1012.2
20260510121505 58 118 0.0 1.7 0.00 0.00 0.00 88 1012.1
20260510120009 58 91 0.0 1.7 0.00 0.00 0.00 88 1012.1
20260510114503 58 52 0.0 1.7 0.00 0.00 0.00 88 1012.0
20260510113001 58 139 0.0 0.9 0.00 0.00 0.00 88 1011.9
20260510111502 58 139 0.0 1.7 0.00 0.00 0.00 88 1011.9
20260510110105 58 139 0.0 1.7 0.00 0.00 0.00 88 1012.1
20260510104603 58 139 0.0 3.5 0.00 0.00 0.00 88 1012.1
20260510103102 58 139 0.0 4.3 0.00 0.00 0.00 87 1012.1
20260510101555 58 128 1.7 4.3 0.00 0.00 0.00 88 1012.1
20260510100056 58 96 1.7 4.3 0.00 0.00 0.00 87 1012.2
20260510094555 58 175 0.9 2.6 0.00 0.00 0.00 87 1012.3
20260510093104 58 47 0.0 0.9 0.00 0.00 0.00 87 1012.3
20260510091554 58 112 0.0 4.3 0.00 0.00 0.00 87 1012.4
20260510090051 58 68 1.7 4.3 0.00 0.00 0.00 87 1012.5
20260510084551 59 122 0.9 2.6 0.00 0.00 0.00 86 1012.6
20260510083050 59 123 1.7 4.3 0.00 0.00 0.00 86 1012.7
20260510081606 59 117 1.7 2.6 0.00 0.00 0.00 86 1012.7
20260510080041 59 159 0.0 0.0 0.00 0.00 0.00 85 1012.8
20260510074540 59 95 0.0 0.0 0.00 0.00 0.00 85 1012.9
20260510073051 59 95 0.0 0.0 0.00 0.00 0.00 85 1013.0
20260510071536 59 116 0.0 0.0 0.00 0.00 0.00 84 1013.1
20260510070036 59 155 0.0 0.0 0.00 0.00 0.00 83 1013.1
20260510064545 59 155 0.0 0.0 0.00 0.00 0.00 83 1013.2
20260510063039 59 154 0.0 0.0 0.00 0.00 0.00 82 1013.3
20260510061534 59 154 0.0 0.0 0.00 0.00 0.00 82 1013.3
20260510060040 60 154 0.0 0.0 0.00 0.00 0.00 82 1013.4
20260510054529 60 203 0.0 0.0 0.00 0.00 0.00 82 1013.4
20260510053039 60 225 0.0 0.0 0.00 0.00 0.00 81 1013.4
20260510051528 61 190 0.0 4.3 0.00 0.00 0.00 80 1013.3
20260510050028 62 180 0.0 4.3 0.00 0.00 0.00 79 1013.2
20260510044543 62 153 0.9 4.3 0.00 0.00 0.00 78 1013.3
20260510043031 63 182 0.9 4.3 0.00 0.00 0.00 77 1013.2
20260510041525 63 188 0.9 4.3 0.00 0.00 0.00 76 1013.1
20260510040038 64 223 0.9 3.5 0.00 0.00 0.00 75 1013.0
20260510034525 65 186 0.0 3.5 0.00 0.00 0.00 73 1012.7
20260510033034 65 158 0.9 4.3 0.00 0.00 0.00 72 1012.5
20260510031523 66 198 0.9 4.3 0.00 0.00 0.00 70 1012.2
20260510030022 67 180 2.6 5.2 0.00 0.00 0.00 69 1012.0
20260510024522 68 211 0.9 4.3 0.00 0.00 0.00 67 1012.0
20260510023021 69 228 2.6 6.1 0.00 0.00 0.00 65 1011.8
20260510021520 70 173 1.7 7.8 0.00 0.00 0.00 63 1011.8
20260510020022 72 204 0.9 7.0 0.00 0.00 0.00 60 1011.8
20260510014518 73 161 2.6 7.8 0.00 0.00 0.00 57 1011.6
20260510013016 75 149 2.6 7.0 0.00 0.00 0.00 55 1011.7
20260510011519 76 177 3.5 7.8 0.00 0.00 0.00 52 1011.4
20260510010022 77 226 1.7 7.0 0.00 0.00 0.00 49 1011.5
20260510004515 78 174 2.6 6.1 0.00 0.00 0.00 48 1011.4
20260510003014 79 218 1.7 7.0 0.00 0.00 0.00 47 1011.4
20260510001512 79 171 3.5 7.8 0.00 0.00 0.00 47 1011.3
20260510000017 80 190 2.6 7.8 0.00 0.00 0.00 47 1011.2
20260509234517 80 204 1.7 7.8 0.00 0.00 0.00 47 1011.4
20260509233011 80 241 2.6 9.6 0.00 0.00 0.00 47 1011.3
20260509231513 80 199 3.5 8.7 0.00 0.00 0.00 47 1011.4
20260509230016 80 149 3.5 8.7 0.00 0.00 0.00 47 1011.5
20260509224505 79 205 3.5 10.4 0.00 0.00 0.00 49 1011.7
20260509223007 81 240 2.6 9.6 0.00 0.00 0.00 47 1011.7
20260509221602 80 183 4.3 8.7 0.00 0.00 0.00 47 1011.8
20260509220002 81 178 3.5 8.7 0.00 0.00 0.00 45 1011.8
20260509214501 81 201 4.3 10.4 0.00 0.00 0.00 47 1011.8